Terug naar catalogus

STARLINK-31852

ActiefCommunicatieVLEO
NORAD 59841·PAYLOAD·🇺🇸 United States

Gelanceerd May 23, 2024 vanaf Cape Canaveral Space Force Station

Loading…

Volgende Passages (komende 24 uur)

TLE

VersSource: CelesTrak SupGP

Epoch: Sep 15, 2026, 02:36 UTC

1 59841C 24097G   26258.10881944 -.00000332  00000+0 -12024-4 0  2587
2 59841  43.0011 276.8961 0001282 265.3748 153.2547 15.27584137    16

Volg STARLINK-31852 in realtime met AllMySat

Download on the App Store